Time,TemperatureF,DewpointF,PressureIn,WindDirection,WindDirectionDegrees,WindSpeedMPH,WindSpeedGustMPH,Humidity,HourlyPrecipIn,Conditions,Clouds,dailyrainin,SoftwareType,DateUTC
2013-02-01 00:01:00,36.0,19.7,30.03,WSW,248,1.1,3.1,51,0.00,,,0.00,WSDL version 420,2013-02-01 07:01:00,
2013-02-01 00:06:00,35.7,19.4,30.00,WSW,248,0.0,2.9,51,0.00,,,0.00,WSDL version 420,2013-02-01 07:06:00,
2013-02-01 00:11:00,35.6,19.7,30.00,East,95,2.1,3.4,53,0.00,,,0.00,WSDL version 420,2013-02-01 07:11:00,
2013-02-01 00:16:00,35.6,19.7,30.00,East,90,0.0,3.4,52,0.00,,,0.00,WSDL version 420,2013-02-01 07:16:00,
2013-02-01 00:21:00,35.6,19.7,30.03,East,90,0.0,1.3,52,0.00,,,0.00,WSDL version 420,2013-02-01 07:21:00,
2013-02-01 00:26:00,35.3,19.4,30.03,East,90,0.0,0.0,52,0.00,,,0.00,WSDL version 420,2013-02-01 07:26:00,
2013-02-01 00:31:00,35.0,19.2,30.03,East,90,0.0,0.0,52,0.00,,,0.00,WSDL version 420,2013-02-01 07:31:00,
2013-02-01 00:36:00,34.9,19.0,30.03,East,90,0.0,0.0,52,0.00,,,0.00,WSDL version 420,2013-02-01 07:36:00,
2013-02-01 00:46:00,34.9,19.4,30.03,East,90,1.1,2.7,52,0.00,,,0.00,WSDL version 420,2013-02-01 07:46:00,
2013-02-01 00:51:00,34.8,19.0,30.03,East,90,1.4,2.7,52,0.00,,,0.00,WSDL version 420,2013-02-01 07:51:00,
2013-02-01 00:56:00,34.7,18.9,30.03,East,90,0.3,2.5,52,0.00,,,0.00,WSDL version 420,2013-02-01 07:56:00,
2013-02-01 01:01:00,34.6,18.7,30.03,ENE,77,0.9,2.5,52,0.00,,,0.00,WSDL version 420,2013-02-01 08:01:00,
2013-02-01 01:06:00,34.5,18.7,30.03,ENE,68,1.1,2.7,52,0.00,,,0.00,WSDL version 420,2013-02-01 08:06:00,
2013-02-01 01:11:00,34.5,18.7,30.03,ENE,68,0.0,2.7,52,0.00,,,0.00,WSDL version 420,2013-02-01 08:11:00,
2013-02-01 01:16:00,34.3,18.6,30.03,ENE,68,0.0,2.0,53,0.00,,,0.00,WSDL version 420,2013-02-01 08:16:00,
2013-02-01 01:21:00,34.3,19.0,30.03,NNE,23,1.3,2.5,53,0.00,,,0.00,WSDL version 420,2013-02-01 08:21:00,
2013-02-01 01:26:00,34.5,19.1,30.03,NNE,23,2.5,2.7,53,0.00,,,0.00,WSDL version 420,2013-02-01 08:26:00,
2013-02-01 01:31:00,34.8,19.4,30.03,ENE,62,2.7,3.6,52,0.00,,,0.00,WSDL version 420,2013-02-01 08:31:00,
2013-02-01 01:36:00,35.1,19.3,30.03,ENE,68,1.9,3.6,52,0.00,,,0.00,WSDL version 420,2013-02-01 08:36:00,
2013-02-01 01:41:00,35.1,19.2,30.03,ENE,68,1.1,2.7,52,0.00,,,0.00,WSDL version 420,2013-02-01 08:41:00,
2013-02-01 01:46:00,35.1,19.2,30.03,ENE,68,1.2,2.0,52,0.00,,,0.00,WSDL version 420,2013-02-01 08:46:00,
2013-02-01 01:51:00,35.1,19.2,30.00,ENE,68,0.7,2.5,52,0.00,,,0.00,WSDL version 420,2013-02-01 08:51:00,
2013-02-01 01:56:00,35.2,19.2,30.00,NE,45,2.6,2.9,51,0.00,,,0.00,WSDL version 420,2013-02-01 08:56:00,
2013-02-01 02:01:00,35.1,18.8,30.00,NNE,23,2.1,2.9,51,0.00,,,0.00,WSDL version 420,2013-02-01 09:01:00,
2013-02-01 02:06:00,35.1,18.8,30.00,NNE,23,0.0,2.9,51,0.00,,,0.00,WSDL version 420,2013-02-01 09:06:00,
2013-02-01 02:11:00,35.1,18.8,30.00,NNE,23,1.6,1.6,51,0.00,,,0.00,WSDL version 420,2013-02-01 09:11:00,
2013-02-01 02:16:00,35.1,19.0,30.00,NNE,23,2.2,2.9,52,0.00,,,0.00,WSDL version 420,2013-02-01 09:16:00,
2013-02-01 02:21:00,35.2,19.3,30.00,NNE,23,1.8,2.9,52,0.00,,,0.00,WSDL version 420,2013-02-01 09:21:00,
2013-02-01 02:26:00,35.2,19.4,30.00,NNE,23,2.3,2.5,52,0.00,,,0.00,WSDL version 420,2013-02-01 09:26:00,
2013-02-01 02:31:00,35.2,19.4,30.00,NNE,23,2.7,3.1,52,0.00,,,0.00,WSDL version 420,2013-02-01 09:31:00,
2013-02-01 02:36:00,35.2,19.4,30.03,NNE,23,3.2,3.4,52,0.00,,,0.00,WSDL version 420,2013-02-01 09:36:00,
2013-02-01 02:41:00,35.2,19.4,30.03,NNE,23,2.3,3.4,52,0.00,,,0.00,WSDL version 420,2013-02-01 09:41:00,
2013-02-01 02:46:00,35.2,19.4,30.03,NNE,23,1.1,3.1,52,0.00,,,0.00,WSDL version 420,2013-02-01 09:46:00,
2013-02-01 02:56:00,35.1,19.2,30.00,NNE,23,1.5,2.0,52,0.00,,,0.00,WSDL version 420,2013-02-01 09:56:00,
2013-02-01 03:01:00,35.1,19.2,30.00,NNE,15,2.0,2.9,52,0.00,,,0.00,WSDL version 420,2013-02-01 10:01:00,
2013-02-01 03:09:00,35.4,19.5,30.00,NNE,23,1.1,2.9,52,0.00,,,0.00,WSDL version 420,2013-02-01 10:09:00,
2013-02-01 03:14:00,35.4,19.5,30.00,NNE,23,1.1,2.0,52,0.00,,,0.00,WSDL version 420,2013-02-01 10:14:00,
2013-02-01 03:19:00,35.2,19.3,30.00,NNE,23,1.5,2.2,52,0.00,,,0.00,WSDL version 420,2013-02-01 10:19:00,
2013-02-01 03:24:00,34.9,18.8,30.00,NE,45,1.5,2.7,51,0.00,,,0.00,WSDL version 420,2013-02-01 10:24:00,
2013-02-01 03:29:00,34.5,18.4,30.00,NE,45,1.2,2.7,52,0.00,,,0.00,WSDL version 420,2013-02-01 10:29:00,
2013-02-01 03:34:00,34.4,18.6,30.00,NE,45,1.5,2.9,52,0.00,,,0.00,WSDL version 420,2013-02-01 10:34:00,
2013-02-01 03:39:00,34.2,18.4,30.00,NE,45,1.1,2.9,52,0.00,,,0.00,WSDL version 420,2013-02-01 10:39:00,
2013-02-01 03:46:00,34.2,18.4,30.00,NE,45,0.2,2.2,52,0.00,,,0.00,WSDL version 420,2013-02-01 10:46:00,
2013-02-01 03:51:00,34.1,18.3,30.00,NE,45,0.0,1.6,52,0.00,,,0.00,WSDL version 420,2013-02-01 10:51:00,
2013-02-01 03:56:00,33.9,18.1,30.00,NE,45,1.2,2.2,52,0.00,,,0.00,WSDL version 420,2013-02-01 10:56:00,
2013-02-01 04:01:00,33.6,17.9,30.00,NE,45,2.0,2.2,52,0.00,,,0.00,WSDL version 420,2013-02-01 11:01:00,
2013-02-01 04:11:00,32.8,17.6,30.00,ENE,68,1.5,2.9,53,0.00,,,0.00,WSDL version 420,2013-02-01 11:11:00,
2013-02-01 04:16:00,32.7,17.9,30.00,ENE,68,0.0,2.5,54,0.00,,,0.00,WSDL version 420,2013-02-01 11:16:00,
2013-02-01 04:21:00,32.7,17.9,30.00,ENE,68,0.0,0.0,54,0.00,,,0.00,WSDL version 420,2013-02-01 11:21:00,
2013-02-01 04:26:00,32.8,18.0,30.00,North,349,3.0,3.6,54,0.00,,,0.00,WSDL version 420,2013-02-01 11:26:00,
2013-02-01 04:31:00,33.0,18.2,30.00,North,360,2.5,3.6,54,0.00,,,0.00,WSDL version 420,2013-02-01 11:31:00,
2013-02-01 04:36:00,33.1,18.3,30.00,North,11,2.5,3.1,54,0.00,,,0.00,WSDL version 420,2013-02-01 11:36:00,
2013-02-01 04:41:00,33.3,18.4,30.00,NNE,23,2.0,3.1,54,0.00,,,0.00,WSDL version 420,2013-02-01 11:41:00,
2013-02-01 04:46:00,33.3,18.2,30.00,NE,45,1.6,2.9,53,0.00,,,0.00,WSDL version 420,2013-02-01 11:46:00,
2013-02-01 04:51:00,33.2,18.0,30.00,NE,45,2.0,2.2,53,0.00,,,0.00,WSDL version 420,2013-02-01 11:51:00,
2013-02-01 04:56:00,32.7,17.4,30.00,NE,45,0.0,2.5,53,0.00,,,0.00,WSDL version 420,2013-02-01 11:56:00,
2013-02-01 05:01:00,32.4,17.2,30.00,NE,45,0.0,2.5,53,0.00,,,0.00,WSDL version 420,2013-02-01 12:01:00,
2013-02-01 05:06:00,32.2,17.2,30.00,NE,45,0.0,1.3,54,0.00,,,0.00,WSDL version 420,2013-02-01 12:06:00,
2013-02-01 05:11:00,32.3,17.5,30.00,NE,45,1.5,2.7,54,0.00,,,0.00,WSDL version 420,2013-02-01 12:11:00,
2013-02-01 05:16:00,32.3,17.5,30.00,NE,45,1.8,2.7,54,0.00,,,0.00,WSDL version 420,2013-02-01 12:16:00,
2013-02-01 05:26:00,32.3,17.5,30.00,North,360,3.6,4.0,54,0.00,,,0.00,WSDL version 420,2013-02-01 12:26:00,
2013-02-01 05:31:00,32.5,18.1,30.00,North,360,3.2,4.0,55,0.00,,,0.00,WSDL version 420,2013-02-01 12:31:00,
2013-02-01 05:36:00,32.7,18.4,30.00,North,-999,-999.0,-999.0,56,0.00,,,0.00,WSDL version 420,2013-02-01 12:36:00,
2013-02-01 05:41:00,32.7,18.8,30.00,NNE,23,1.7,3.8,56,0.00,,,0.00,WSDL version 420,2013-02-01 12:41:00,
2013-02-01 05:46:00,32.7,18.8,30.00,NNE,23,0.4,3.1,56,0.00,,,0.00,WSDL version 420,2013-02-01 12:46:00,
2013-02-01 05:51:00,32.7,18.6,30.00,NNE,23,0.0,1.6,55,0.00,,,0.00,WSDL version 420,2013-02-01 12:51:00,
2013-02-01 05:56:00,32.3,18.0,30.00,NNE,23,0.0,0.0,55,0.00,,,0.00,WSDL version 420,2013-02-01 12:56:00,
2013-02-01 06:01:00,32.1,18.7,30.00,NNE,23,0.0,0.0,55,0.00,,,0.00,WSDL version 420,2013-02-01 13:01:00,
2013-02-01 06:06:00,31.8,19.1,30.00,NNE,23,3.2,4.3,55,0.00,,,0.00,WSDL version 420,2013-02-01 13:06:00,
2013-02-01 06:11:00,31.8,19.1,30.00,NNE,23,2.5,4.3,55,0.00,,,0.00,WSDL version 420,2013-02-01 13:11:00,
2013-02-01 06:16:00,31.8,19.2,30.00,NNE,23,2.2,3.4,56,0.00,,,0.00,WSDL version 420,2013-02-01 13:16:00,
2013-02-01 06:21:00,31.8,19.5,30.00,NNE,23,2.9,3.8,56,0.00,,,0.00,WSDL version 420,2013-02-01 13:21:00,
2013-02-01 06:26:00,32.0,19.9,30.00,North,360,4.5,4.5,57,0.00,,,0.00,WSDL version 420,2013-02-01 13:26:00,
2013-02-01 06:31:00,32.2,18.6,30.00,North,360,4.4,5.6,56,0.00,,,0.00,WSDL version 420,2013-02-01 13:31:00,
2013-02-01 06:36:00,32.2,18.1,30.00,North,11,3.8,5.6,55,0.00,,,0.00,WSDL version 420,2013-02-01 13:36:00,
2013-02-01 06:41:00,32.0,19.2,30.00,North,11,2.8,4.9,55,0.00,,,0.00,WSDL version 420,2013-02-01 13:41:00,
2013-02-01 06:46:00,32.0,18.9,30.00,NNE,23,2.0,4.3,54,0.00,,,0.00,WSDL version 420,2013-02-01 13:46:00,
2013-02-01 06:51:00,31.9,18.8,30.00,NNE,23,0.0,2.2,54,0.00,,,0.00,WSDL version 420,2013-02-01 13:51:00,
2013-02-01 06:56:00,31.8,18.7,30.00,NNE,23,0.0,0.0,54,0.00,,,0.00,WSDL version 420,2013-02-01 13:56:00,
2013-02-01 07:01:00,31.7,18.6,30.00,NNE,23,0.0,0.0,54,0.00,,,0.00,WSDL version 420,2013-02-01 14:01:00,
2013-02-01 07:06:00,31.6,18.5,30.00,NNE,23,0.0,2.2,54,0.00,,,0.00,WSDL version 420,2013-02-01 14:06:00,
2013-02-01 07:11:00,31.6,18.5,30.00,NNE,23,2.5,3.6,54,0.00,,,0.00,WSDL version 420,2013-02-01 14:11:00,
2013-02-01 07:16:00,31.5,18.6,30.00,North,11,2.5,3.6,55,0.00,,,0.00,WSDL version 420,2013-02-01 14:16:00,
2013-02-01 07:21:00,31.5,18.8,30.00,NNE,23,2.2,3.4,55,0.00,,,0.00,WSDL version 420,2013-02-01 14:21:00,
2013-02-01 07:26:00,31.7,19.0,30.00,North,360,2.5,2.9,55,0.00,,,0.00,WSDL version 420,2013-02-01 14:26:00,
2013-02-01 07:31:00,31.8,19.2,30.00,North,-999,-999.0,-999.0,55,0.00,,,0.00,WSDL version 420,2013-02-01 14:31:00,
2013-02-01 07:36:00,32.0,19.5,30.00,NNW,338,2.9,3.4,56,0.00,,,0.00,WSDL version 420,2013-02-01 14:36:00,
2013-02-01 07:41:00,32.0,19.3,30.00,North,11,3.2,3.8,55,0.00,,,0.00,WSDL version 420,2013-02-01 14:41:00,
2013-02-01 07:46:00,32.0,18.9,30.00,NNE,23,2.5,3.8,54,0.00,,,0.00,WSDL version 420,2013-02-01 14:46:00,
2013-02-01 07:51:00,32.0,18.9,30.00,NNE,23,0.0,3.4,54,0.00,,,0.00,WSDL version 420,2013-02-01 14:51:00,
2013-02-01 07:56:00,32.1,18.1,30.00,NNE,23,0.0,1.3,54,0.00,,,0.00,WSDL version 420,2013-02-01 14:56:00,
2013-02-01 08:01:00,32.5,17.8,30.00,North,349,2.6,3.1,55,0.00,,,0.00,WSDL version 420,2013-02-01 15:01:00,
2013-02-01 08:06:00,32.8,18.4,30.03,NNW,345,2.7,3.1,55,0.00,,,0.00,WSDL version 420,2013-02-01 15:06:00,
2013-02-01 08:11:00,33.1,18.6,30.03,NNW,345,2.9,3.1,55,0.00,,,0.00,WSDL version 420,2013-02-01 15:11:00,
2013-02-01 08:16:00,33.2,18.9,30.03,North,8,2.5,3.4,56,0.00,,,0.00,WSDL version 420,2013-02-01 15:16:00,
2013-02-01 08:21:00,33.5,19.1,30.03,North,349,2.5,3.4,55,0.00,,,0.00,WSDL version 420,2013-02-01 15:21:00,
2013-02-01 08:26:00,33.7,19.3,30.03,North,11,3.0,3.8,55,0.00,,,0.00,WSDL version 420,2013-02-01 15:26:00,
2013-02-01 08:31:00,34.0,19.6,30.03,NNE,23,3.4,4.0,55,0.00,,,0.00,WSDL version 420,2013-02-01 15:31:00,
2013-02-01 08:36:00,34.4,19.9,30.03,North,0,0.0,4.0,55,0.00,,,0.00,WSDL version 420,2013-02-01 15:36:00,
2013-02-01 08:41:00,34.9,20.4,30.03,North,360,1.8,3.8,55,0.00,,,0.00,WSDL version 420,2013-02-01 15:41:00,
2013-02-01 08:46:00,35.3,20.8,30.03,North,360,2.5,3.4,55,0.00,,,0.00,WSDL version 420,2013-02-01 15:46:00,
2013-02-01 08:51:00,35.8,21.1,30.03,North,-999,-999.0,-999.0,54,0.00,,,0.00,WSDL version 420,2013-02-01 15:51:00,
2013-02-01 08:56:00,36.4,21.3,30.03,North,353,2.3,2.9,54,0.00,,,0.00,WSDL version 420,2013-02-01 15:56:00,
2013-02-01 09:01:00,37.0,21.5,30.03,North,360,2.2,2.9,53,0.00,,,0.00,WSDL version 420,2013-02-01 16:01:00,
2013-02-01 09:06:00,37.6,21.8,30.03,NNW,338,1.3,2.7,52,0.00,,,0.00,WSDL version 420,2013-02-01 16:06:00,
2013-02-01 09:11:00,38.2,22.1,30.03,North,-999,-999.0,-999.0,52,0.00,,,0.00,WSDL version 420,2013-02-01 16:11:00,
2013-02-01 09:16:00,38.6,22.5,30.03,North,-999,-999.0,-999.0,52,0.00,,,0.00,WSDL version 420,2013-02-01 16:16:00,
2013-02-01 09:21:00,39.1,22.9,30.03,NNW,338,3.6,4.9,52,0.00,,,0.00,WSDL version 420,2013-02-01 16:21:00,
2013-02-01 09:26:00,39.4,23.0,30.03,North,0,0.0,6.3,51,0.00,,,0.00,WSDL version 420,2013-02-01 16:26:00,
2013-02-01 09:31:00,39.9,23.2,30.03,North,-999,-999.0,-999.0,50,0.00,,,0.00,WSDL version 420,2013-02-01 16:31:00,
2013-02-01 09:36:00,40.5,23.0,30.03,North,349,4.5,5.8,49,0.00,,,0.00,WSDL version 420,2013-02-01 16:36:00,
2013-02-01 09:41:00,41.0,22.9,30.03,NNW,338,4.0,6.3,48,0.00,,,0.00,WSDL version 420,2013-02-01 16:41:00,
2013-02-01 09:46:00,41.5,23.4,30.03,North,349,4.1,6.3,48,0.00,,,0.00,WSDL version 420,2013-02-01 16:46:00,
2013-02-01 09:51:00,41.9,23.3,30.03,NNW,338,3.7,4.3,47,0.00,,,0.00,WSDL version 420,2013-02-01 16:51:00,
2013-02-01 09:56:00,42.4,23.6,30.03,NNW,338,3.6,4.3,47,0.00,,,0.00,WSDL version 420,2013-02-01 16:56:00,
2013-02-01 10:01:00,42.8,23.5,30.03,NNW,338,2.7,3.6,46,0.00,,,0.00,WSDL version 420,2013-02-01 17:01:00,
2013-02-01 10:06:00,43.2,24.0,30.03,North,-999,-999.0,-999.0,47,0.00,,,0.00,WSDL version 420,2013-02-01 17:06:00,
2013-02-01 10:11:00,43.7,24.9,30.03,West,281,2.9,3.4,47,0.00,,,0.00,WSDL version 420,2013-02-01 17:11:00,
2013-02-01 10:16:00,44.2,25.1,30.03,North,0,0.0,3.6,47,0.00,,,0.00,WSDL version 420,2013-02-01 17:16:00,
2013-02-01 10:21:00,44.8,25.2,30.03,NNW,338,2.9,4.9,46,0.00,,,0.00,WSDL version 420,2013-02-01 17:21:00,
2013-02-01 10:26:00,45.3,25.2,30.03,NNW,338,2.9,4.9,45,0.00,,,0.00,WSDL version 420,2013-02-01 17:26:00,
2013-02-01 10:31:00,45.7,25.4,30.03,NNW,338,2.5,3.4,45,0.00,,,0.00,WSDL version 420,2013-02-01 17:31:00,
2013-02-01 10:36:00,46.3,25.6,30.06,North,360,2.9,3.6,43,0.00,,,0.00,WSDL version 420,2013-02-01 17:36:00,
2013-02-01 10:41:00,46.6,25.4,30.06,East,90,1.9,3.6,43,0.00,,,0.00,WSDL version 420,2013-02-01 17:41:00,
2013-02-01 10:46:00,47.0,25.5,30.06,North,-999,-999.0,-999.0,42,0.00,,,0.00,WSDL version 420,2013-02-01 17:46:00,
2013-02-01 10:51:00,47.3,25.4,30.06,NNE,23,2.3,3.8,42,0.00,,,0.00,WSDL version 420,2013-02-01 17:51:00,
2013-02-01 10:56:00,47.6,25.6,30.06,North,349,2.5,3.8,42,0.00,,,0.00,WSDL version 420,2013-02-01 17:56:00,
2013-02-01 11:01:00,47.8,25.6,30.06,NNW,338,3.8,4.7,41,0.00,,,0.00,WSDL version 420,2013-02-01 18:01:00,
2013-02-01 11:06:00,48.0,25.4,30.06,NNW,338,2.2,4.7,41,0.00,,,0.00,WSDL version 420,2013-02-01 18:06:00,
2013-02-01 11:11:00,48.4,25.8,30.06,North,8,2.6,3.8,41,0.00,,,0.00,WSDL version 420,2013-02-01 18:11:00,
2013-02-01 11:16:00,48.7,26.0,30.06,North,6,2.2,3.8,40,0.00,,,0.00,WSDL version 420,2013-02-01 18:16:00,
2013-02-01 11:21:00,49.1,26.2,30.06,North,0,0.0,3.8,41,0.00,,,0.00,WSDL version 420,2013-02-01 18:21:00,
2013-02-01 11:26:00,49.5,26.2,30.06,WNW,293,2.7,3.8,40,0.00,,,0.00,WSDL version 420,2013-02-01 18:26:00,
2013-02-01 11:31:00,49.8,26.0,30.06,North,349,2.7,4.3,38,0.00,,,0.00,WSDL version 420,2013-02-01 18:31:00,
2013-02-01 11:36:00,50.2,26.2,30.06,West,278,3.4,4.3,39,0.00,,,0.00,WSDL version 420,2013-02-01 18:36:00,
2013-02-01 11:41:00,50.4,26.1,30.06,NNE,23,2.9,4.3,39,0.00,,,0.00,WSDL version 420,2013-02-01 18:41:00,
2013-02-01 11:46:00,50.5,26.1,30.06,North,349,2.5,4.0,38,0.00,,,0.00,WSDL version 420,2013-02-01 18:46:00,
2013-02-01 11:51:00,50.7,26.1,30.06,North,11,2.5,4.0,38,0.00,,,0.00,WSDL version 420,2013-02-01 18:51:00,
2013-02-01 11:56:00,50.9,26.3,30.06,SW,225,2.7,4.0,38,0.00,,,0.00,WSDL version 420,2013-02-01 18:56:00,
2013-02-01 12:01:00,51.0,25.8,30.06,NNW,338,2.7,3.6,37,0.00,,,0.00,WSDL version 420,2013-02-01 19:01:00,
2013-02-01 12:06:00,51.1,25.7,30.06,WSW,248,2.3,4.3,37,0.00,,,0.00,WSDL version 420,2013-02-01 19:06:00,
2013-02-01 12:11:00,51.3,25.3,30.06,NNW,338,2.9,6.0,36,0.00,,,0.00,WSDL version 420,2013-02-01 19:11:00,
2013-02-01 12:16:00,51.5,25.5,30.06,North,360,2.5,6.0,36,0.00,,,0.00,WSDL version 420,2013-02-01 19:16:00,
2013-02-01 12:21:00,51.7,25.6,30.03,NNW,338,2.9,4.7,36,0.00,,,0.00,WSDL version 420,2013-02-01 19:21:00,
2013-02-01 12:26:00,52.0,25.4,30.03,NNW,338,3.1,4.7,33,0.00,,,0.00,WSDL version 420,2013-02-01 19:26:00,
2013-02-01 12:31:00,52.3,24.6,30.03,North,-999,-999.0,-999.0,33,0.00,,,0.00,WSDL version 420,2013-02-01 19:31:00,
2013-02-01 12:36:00,52.5,23.8,30.03,NNW,338,2.9,4.7,32,0.00,,,0.00,WSDL version 420,2013-02-01 19:36:00,
2013-02-01 12:41:00,52.8,23.0,30.03,NNW,338,2.7,4.7,32,0.00,,,0.00,WSDL version 420,2013-02-01 19:41:00,
2013-02-01 12:46:00,53.1,23.3,30.03,NNW,338,2.7,3.4,30,0.00,,,0.00,WSDL version 420,2013-02-01 19:46:00,
2013-02-01 12:51:00,53.5,22.6,30.03,NNW,338,2.6,3.4,30,0.00,,,0.00,WSDL version 420,2013-02-01 19:51:00,
2013-02-01 12:56:00,53.8,22.6,30.03,North,-999,-999.0,-999.0,29,0.00,,,0.00,WSDL version 420,2013-02-01 19:56:00,
2013-02-01 13:01:00,54.2,22.3,30.03,WSW,248,2.7,3.4,28,0.00,,,0.00,WSDL version 420,2013-02-01 20:01:00,
2013-02-01 13:06:00,54.5,21.7,30.03,North,360,2.7,3.4,27,0.00,,,0.00,WSDL version 420,2013-02-01 20:06:00,
2013-02-01 13:11:00,54.7,21.8,30.03,NNW,338,2.9,4.0,28,0.00,,,0.00,WSDL version 420,2013-02-01 20:11:00,
2013-02-01 13:16:00,55.0,21.5,30.03,North,-999,-999.0,-999.0,26,0.00,,,0.00,WSDL version 420,2013-02-01 20:16:00,
2013-02-01 13:21:00,55.1,21.0,30.03,SW,225,2.2,3.1,26,0.00,,,0.00,WSDL version 420,2013-02-01 20:21:00,
2013-02-01 13:26:00,55.2,20.9,30.03,WSW,248,2.7,2.9,26,0.00,,,0.00,WSDL version 420,2013-02-01 20:26:00,
2013-02-01 13:31:00,55.5,20.4,30.03,NW,315,2.0,2.9,25,0.00,,,0.00,WSDL version 420,2013-02-01 20:31:00,
2013-02-01 13:36:00,55.6,20.3,30.03,North,356,2.6,3.8,25,0.00,,,0.00,WSDL version 420,2013-02-01 20:36:00,
2013-02-01 13:41:00,55.8,20.5,30.03,NNE,23,2.5,3.8,25,0.00,,,0.00,WSDL version 420,2013-02-01 20:41:00,
2013-02-01 13:46:00,55.9,20.1,30.03,North,360,3.1,3.1,22,0.00,,,0.00,WSDL version 420,2013-02-01 20:46:00,
2013-02-01 13:51:00,56.2,18.4,30.03,NNW,338,3.7,6.3,22,0.00,,,0.00,WSDL version 420,2013-02-01 20:51:00,
2013-02-01 13:56:00,56.3,18.5,30.03,WNW,293,2.9,6.3,22,0.00,,,0.00,WSDL version 420,2013-02-01 20:56:00,
2013-02-01 14:01:00,56.5,18.1,30.03,NNW,338,3.9,7.2,22,0.00,,,0.00,WSDL version 420,2013-02-01 21:01:00,
2013-02-01 14:06:00,56.7,18.3,30.03,NNW,338,3.0,7.2,22,0.00,,,0.00,WSDL version 420,2013-02-01 21:06:00,
2013-02-01 14:11:00,56.8,18.4,30.03,NNW,338,2.9,4.9,22,0.00,,,0.00,WSDL version 420,2013-02-01 21:11:00,
2013-02-01 14:16:00,56.8,18.4,30.03,NNW,338,4.3,4.3,22,0.00,,,0.00,WSDL version 420,2013-02-01 21:16:00,
2013-02-01 14:21:00,56.8,18.4,30.03,North,-999,-999.0,-999.0,22,0.00,,,0.00,WSDL version 420,2013-02-01 21:21:00,
2013-02-01 14:26:00,57.0,18.5,30.03,North,360,2.7,4.3,22,0.00,,,0.00,WSDL version 420,2013-02-01 21:26:00,
2013-02-01 14:31:00,57.1,18.6,30.03,North,-999,-999.0,-999.0,22,0.00,,,0.00,WSDL version 420,2013-02-01 21:31:00,
2013-02-01 14:36:00,57.2,18.7,30.03,North,-999,-999.0,-999.0,22,0.00,,,0.00,WSDL version 420,2013-02-01 21:36:00,
2013-02-01 14:41:00,57.2,18.2,30.03,North,0,0.0,1.6,19,0.00,,,0.00,WSDL version 420,2013-02-01 21:41:00,
2013-02-01 14:46:00,57.2,15.3,30.03,NNW,338,2.3,4.0,19,0.00,,,0.00,WSDL version 420,2013-02-01 21:46:00,
2013-02-01 14:51:00,57.4,15.5,30.03,North,0,0.0,4.0,19,0.00,,,0.00,WSDL version 420,2013-02-01 21:51:00,
2013-02-01 14:56:00,57.4,15.5,30.03,North,0,0.0,3.6,19,0.00,,,0.00,WSDL version 420,2013-02-01 21:56:00,
2013-02-01 15:01:00,57.5,15.5,30.03,North,-999,-999.0,-999.0,19,0.00,,,0.00,WSDL version 420,2013-02-01 22:01:00,
2013-02-01 15:06:00,57.6,15.6,30.03,NE,45,2.0,2.5,19,0.00,,,0.00,WSDL version 420,2013-02-01 22:06:00,
2013-02-01 15:11:00,57.6,15.6,30.03,NNW,338,2.2,2.5,19,0.00,,,0.00,WSDL version 420,2013-02-01 22:11:00,
2013-02-01 15:16:00,57.7,15.8,30.03,North,-999,-999.0,-999.0,19,0.00,,,0.00,WSDL version 420,2013-02-01 22:16:00,
2013-02-01 15:21:00,57.8,15.4,30.03,North,-999,-999.0,-999.0,19,0.00,,,0.00,WSDL version 420,2013-02-01 22:21:00,
2013-02-01 15:26:00,58.0,15.5,30.03,NNW,345,2.5,3.8,19,0.00,,,0.00,WSDL version 420,2013-02-01 22:26:00,
2013-02-01 15:31:00,58.1,15.6,30.03,North,-999,-999.0,-999.0,17,0.00,,,0.00,WSDL version 420,2013-02-01 22:31:00,
2013-02-01 15:36:00,58.0,13.4,30.03,North,349,3.9,4.9,17,0.00,,,0.00,WSDL version 420,2013-02-01 22:36:00,
2013-02-01 15:41:00,57.9,13.4,30.03,North,-999,-999.0,-999.0,17,0.00,,,0.00,WSDL version 420,2013-02-01 22:41:00,
2013-02-01 15:46:00,57.7,13.2,30.03,North,-999,-999.0,-999.0,17,0.00,,,0.00,WSDL version 420,2013-02-01 22:46:00,
2013-02-01 15:51:00,57.7,13.2,30.03,North,349,2.9,5.4,17,0.00,,,0.00,WSDL version 420,2013-02-01 22:51:00,
2013-02-01 15:56:00,57.6,15.2,30.03,North,-999,-999.0,-999.0,19,0.00,,,0.00,WSDL version 420,2013-02-01 22:56:00,
2013-02-01 16:01:00,57.7,14.9,30.03,North,-999,-999.0,-999.0,19,0.00,,,0.00,WSDL version 420,2013-02-01 23:01:00,
2013-02-01 16:06:00,57.7,15.3,30.03,NNW,338,2.2,3.4,17,0.00,,,0.00,WSDL version 420,2013-02-01 23:06:00,
2013-02-01 16:11:00,57.6,13.6,30.03,North,360,3.1,5.6,17,0.00,,,0.00,WSDL version 420,2013-02-01 23:11:00,
2013-02-01 16:16:00,57.6,13.1,30.03,NNW,338,5.4,5.6,17,0.00,,,0.00,WSDL version 420,2013-02-01 23:16:00,
2013-02-01 16:21:00,57.6,14.4,30.03,East,90,2.9,3.8,19,0.00,,,0.00,WSDL version 420,2013-02-01 23:21:00,
2013-02-01 16:26:00,57.6,15.2,30.03,North,-999,-999.0,-999.0,19,0.00,,,0.00,WSDL version 420,2013-02-01 23:26:00,
2013-02-01 16:31:00,57.6,14.1,30.03,North,-999,-999.0,-999.0,17,0.00,,,0.00,WSDL version 420,2013-02-01 23:31:00,
2013-02-01 16:36:00,57.4,14.7,30.03,North,-999,-999.0,-999.0,17,0.00,,,0.00,WSDL version 420,2013-02-01 23:36:00,
2013-02-01 16:41:00,57.2,14.9,30.03,North,-999,-999.0,-999.0,19,0.00,,,0.00,WSDL version 420,2013-02-01 23:41:00,
2013-02-01 16:46:00,57.1,15.7,30.03,NW,315,2.1,3.1,20,0.00,,,0.00,WSDL version 420,2013-02-01 23:46:00,
2013-02-01 16:51:00,56.8,16.2,30.03,North,-999,-999.0,-999.0,20,0.00,,,0.00,WSDL version 420,2013-02-01 23:51:00,
2013-02-01 16:56:00,56.7,16.1,30.03,NNW,338,3.4,3.4,20,0.00,,,0.00,WSDL version 420,2013-02-01 23:56:00,
2013-02-01 17:01:00,56.6,16.0,30.03,North,349,2.0,3.4,20,0.00,,,0.00,WSDL version 420,2013-02-02 00:01:00,
2013-02-01 17:06:00,56.4,15.8,30.03,North,0,0.0,2.2,20,0.00,,,0.00,WSDL version 420,2013-02-02 00:06:00,
2013-02-01 17:11:00,56.2,15.7,30.03,NW,315,1.6,2.2,20,0.00,,,0.00,WSDL version 420,2013-02-02 00:11:00,
2013-02-01 17:16:00,55.9,15.4,30.03,NNE,23,1.6,2.0,20,0.00,,,0.00,WSDL version 420,2013-02-02 00:16:00,
2013-02-01 17:21:00,55.6,15.2,30.03,North,0,0.0,2.0,20,0.00,,,0.00,WSDL version 420,2013-02-02 00:21:00,
2013-02-01 17:26:00,55.1,14.8,30.03,WNW,293,0.9,1.3,20,0.00,,,0.00,WSDL version 420,2013-02-02 00:26:00,
2013-02-01 17:31:00,54.8,14.5,30.03,North,0,0.0,0.0,20,0.00,,,0.00,WSDL version 420,2013-02-02 00:31:00,
2013-02-01 17:36:00,54.4,14.2,30.03,NW,304,0.6,1.3,20,0.00,,,0.00,WSDL version 420,2013-02-02 00:36:00,
2013-02-01 17:41:00,54.1,14.0,30.03,South,180,0.0,1.3,20,0.00,,,0.00,WSDL version 420,2013-02-02 00:41:00,
2013-02-01 17:46:00,53.6,13.8,30.03,South,180,0.0,0.9,21,0.00,,,0.00,WSDL version 420,2013-02-02 00:46:00,
2013-02-01 17:51:00,53.2,14.3,30.03,South,180,0.0,0.0,21,0.00,,,0.00,WSDL version 420,2013-02-02 00:51:00,
2013-02-01 17:56:00,52.7,13.9,30.03,North,-999,-999.0,-999.0,21,0.00,,,0.00,WSDL version 420,2013-02-02 00:56:00,
2013-02-01 18:01:00,52.2,13.5,30.03,East,90,1.1,1.3,21,0.00,,,0.00,WSDL version 420,2013-02-02 01:01:00,
2013-02-01 18:06:00,51.8,13.1,30.03,East,90,0.0,1.3,21,0.00,,,0.00,WSDL version 420,2013-02-02 01:06:00,
2013-02-01 18:11:00,51.4,12.8,30.03,East,90,0.0,1.3,21,0.00,,,0.00,WSDL version 420,2013-02-02 01:11:00,
2013-02-01 18:16:00,51.0,14.2,30.03,ENE,68,2.9,3.6,24,0.00,,,0.00,WSDL version 420,2013-02-02 01:16:00,
2013-02-01 18:21:00,50.1,14.8,30.03,ENE,68,1.8,3.6,24,0.00,,,0.00,WSDL version 420,2013-02-02 01:21:00,
2013-02-01 18:26:00,48.9,15.5,30.03,ENE,68,2.5,2.7,26,0.00,,,0.00,WSDL version 420,2013-02-02 01:26:00,
2013-02-01 18:31:00,48.2,15.4,30.03,ENE,68,2.7,3.8,27,0.00,,,0.00,WSDL version 420,2013-02-02 01:31:00,
2013-02-01 18:36:00,47.2,15.4,30.03,ENE,75,3.8,4.7,28,0.00,,,0.00,WSDL version 420,2013-02-02 01:36:00,
2013-02-01 18:41:00,46.3,15.7,30.03,ENE,68,3.2,4.7,29,0.00,,,0.00,WSDL version 420,2013-02-02 01:41:00,
2013-02-01 18:46:00,45.8,15.4,30.03,North,0,0.0,4.3,29,0.00,,,0.00,WSDL version 420,2013-02-02 01:46:00,
2013-02-01 18:51:00,45.5,15.1,30.03,ENE,62,4.2,6.0,29,0.00,,,0.00,WSDL version 420,2013-02-02 01:51:00,
2013-02-01 18:56:00,45.1,15.1,30.03,East,79,2.2,6.0,30,0.00,,,0.00,WSDL version 420,2013-02-02 01:56:00,
2013-02-01 19:01:00,44.7,15.3,30.03,ENE,68,3.8,4.3,31,0.00,,,0.00,WSDL version 420,2013-02-02 02:01:00,
2013-02-01 19:06:00,44.2,15.5,30.06,ENE,68,3.1,4.3,31,0.00,,,0.00,WSDL version 420,2013-02-02 02:06:00,
2013-02-01 19:11:00,43.8,15.1,30.06,ENE,68,4.0,5.8,31,0.00,,,0.00,WSDL version 420,2013-02-02 02:11:00,
2013-02-01 19:16:00,43.7,14.3,30.06,ENE,68,4.3,6.3,30,0.00,,,0.00,WSDL version 420,2013-02-02 02:16:00,
2013-02-01 19:21:00,43.7,14.5,30.06,ENE,63,3.9,6.3,31,0.00,,,0.00,WSDL version 420,2013-02-02 02:21:00,
2013-02-01 19:26:00,43.3,14.8,30.06,ENE,75,3.4,5.4,32,0.00,,,0.00,WSDL version 420,2013-02-02 02:26:00,
2013-02-01 19:31:00,43.0,15.1,30.06,East,83,3.3,5.4,32,0.00,,,0.00,WSDL version 420,2013-02-02 02:31:00,
2013-02-01 19:36:00,42.8,15.0,30.06,ENE,77,3.5,4.7,32,0.00,,,0.00,WSDL version 420,2013-02-02 02:36:00,
2013-02-01 19:41:00,42.7,14.9,30.06,SW,219,3.8,6.5,32,0.00,,,0.00,WSDL version 420,2013-02-02 02:41:00,
2013-02-01 19:46:00,42.9,14.3,30.06,SE,135,3.1,6.5,30,0.00,,,0.00,WSDL version 420,2013-02-02 02:46:00,
2013-02-01 19:51:00,43.9,14.5,30.06,SE,135,1.2,5.4,30,0.00,,,0.00,WSDL version 420,2013-02-02 02:51:00,
2013-02-01 19:56:00,44.7,14.5,30.06,ESE,120,2.8,3.4,29,0.00,,,0.00,WSDL version 420,2013-02-02 02:56:00,
2013-02-01 20:01:00,44.7,14.4,30.06,East,79,2.6,3.4,29,0.00,,,0.00,WSDL version 420,2013-02-02 03:01:00,
2013-02-01 20:06:00,44.2,14.0,30.06,ENE,68,2.7,3.6,29,0.00,,,0.00,WSDL version 420,2013-02-02 03:06:00,
2013-02-01 20:11:00,44.0,13.7,30.06,ENE,68,3.8,4.3,29,0.00,,,0.00,WSDL version 420,2013-02-02 03:11:00,
2013-02-01 20:16:00,43.8,13.6,30.06,ENE,68,4.5,5.8,29,0.00,,,0.00,WSDL version 420,2013-02-02 03:16:00,
2013-02-01 20:21:00,43.6,14.1,30.06,ENE,68,3.1,5.8,30,0.00,,,0.00,WSDL version 420,2013-02-02 03:21:00,
2013-02-01 20:26:00,43.4,13.9,30.06,ENE,68,4.2,5.4,30,0.00,,,0.00,WSDL version 420,2013-02-02 03:26:00,
2013-02-01 20:31:00,43.2,13.9,30.06,ENE,68,4.5,5.4,30,0.00,,,0.00,WSDL version 420,2013-02-02 03:31:00,
2013-02-01 20:36:00,43.0,13.7,30.06,ENE,68,2.5,4.9,30,0.00,,,0.00,WSDL version 420,2013-02-02 03:36:00,
2013-02-01 20:41:00,42.7,13.9,30.06,ENE,68,2.9,3.8,31,0.00,,,0.00,WSDL version 420,2013-02-02 03:41:00,
2013-02-01 20:46:00,42.3,14.2,30.06,ENE,68,3.4,6.0,32,0.00,,,0.00,WSDL version 420,2013-02-02 03:46:00,
2013-02-01 20:51:00,41.7,14.1,30.09,ENE,68,2.8,6.0,33,0.00,,,0.00,WSDL version 420,2013-02-02 03:51:00,
2013-02-01 20:56:00,41.2,14.3,30.09,ENE,68,3.0,4.0,33,0.00,,,0.00,WSDL version 420,2013-02-02 03:56:00,
2013-02-01 21:01:00,40.9,15.0,30.09,ENE,68,3.1,4.0,35,0.00,,,0.00,WSDL version 420,2013-02-02 04:01:00,
2013-02-01 21:06:00,40.4,15.6,30.09,East,90,3.2,3.8,36,0.00,,,0.00,WSDL version 420,2013-02-02 04:06:00,
2013-02-01 21:11:00,40.0,16.1,30.09,ENE,68,3.0,3.8,38,0.00,,,0.00,WSDL version 420,2013-02-02 04:11:00,
2013-02-01 21:16:00,39.7,16.2,30.09,ENE,68,3.3,3.8,38,0.00,,,0.00,WSDL version 420,2013-02-02 04:16:00,
2013-02-01 21:21:00,39.6,16.2,30.09,ENE,68,3.4,3.8,39,0.00,,,0.00,WSDL version 420,2013-02-02 04:21:00,
2013-02-01 21:26:00,39.5,16.6,30.09,ENE,68,3.5,4.3,39,0.00,,,0.00,WSDL version 420,2013-02-02 04:26:00,
2013-02-01 21:31:00,39.4,16.5,30.09,ENE,68,4.3,4.9,39,0.00,,,0.00,WSDL version 420,2013-02-02 04:31:00,
2013-02-01 21:36:00,39.2,16.8,30.09,ENE,68,3.8,4.9,40,0.00,,,0.00,WSDL version 420,2013-02-02 04:36:00,
2013-02-01 21:41:00,39.1,16.8,30.09,ENE,63,3.9,5.6,40,0.00,,,0.00,WSDL version 420,2013-02-02 04:41:00,
2013-02-01 21:46:00,39.0,16.7,30.09,ENE,68,3.8,5.6,40,0.00,,,0.00,WSDL version 420,2013-02-02 04:46:00,
2013-02-01 21:51:00,39.3,17.0,30.09,ENE,68,3.0,4.9,40,0.00,,,0.00,WSDL version 420,2013-02-02 04:51:00,
2013-02-01 21:56:00,39.7,17.3,30.09,ENE,68,3.4,4.3,40,0.00,,,0.00,WSDL version 420,2013-02-02 04:56:00,
2013-02-01 22:01:00,39.7,17.4,30.09,ENE,68,3.4,4.3,40,0.00,,,0.00,WSDL version 420,2013-02-02 05:01:00,
2013-02-01 22:06:00,39.8,17.4,30.09,ENE,68,4.3,4.9,40,0.00,,,0.00,WSDL version 420,2013-02-02 05:06:00,
2013-02-01 22:11:00,39.9,17.6,30.09,North,0,0.0,4.9,40,0.00,,,0.00,WSDL version 420,2013-02-02 05:11:00,
2013-02-01 22:16:00,39.9,17.6,30.09,ENE,68,3.9,4.9,40,0.00,,,0.00,WSDL version 420,2013-02-02 05:16:00,
2013-02-01 22:21:00,40.1,17.8,30.09,ENE,68,1.7,4.9,40,0.00,,,0.00,WSDL version 420,2013-02-02 05:21:00,
2013-02-01 22:26:00,40.3,17.9,30.09,ENE,68,2.7,3.8,40,0.00,,,0.00,WSDL version 420,2013-02-02 05:26:00,
2013-02-01 22:31:00,40.2,17.8,30.09,ENE,68,3.1,4.0,40,0.00,,,0.00,WSDL version 420,2013-02-02 05:31:00,
2013-02-01 22:36:00,40.2,17.9,30.09,ENE,68,3.4,4.0,40,0.00,,,0.00,WSDL version 420,2013-02-02 05:36:00,
2013-02-01 22:41:00,40.3,17.9,30.09,ENE,68,3.4,4.0,40,0.00,,,0.00,WSDL version 420,2013-02-02 05:41:00,
2013-02-01 22:46:00,40.2,17.8,30.09,ENE,68,3.0,4.0,40,0.00,,,0.00,WSDL version 420,2013-02-02 05:46:00,
2013-02-01 22:51:00,40.1,17.7,30.09,ENE,68,4.0,4.3,40,0.00,,,0.00,WSDL version 420,2013-02-02 05:51:00,
2013-02-01 22:56:00,39.7,17.4,30.09,ENE,68,3.6,4.3,40,0.00,,,0.00,WSDL version 420,2013-02-02 05:56:00,
2013-02-01 23:01:00,39.5,17.5,30.09,ENE,68,3.4,4.3,41,0.00,,,0.00,WSDL version 420,2013-02-02 06:01:00,
2013-02-01 23:06:00,39.4,17.6,30.09,ENE,68,2.2,4.3,41,0.00,,,0.00,WSDL version 420,2013-02-02 06:06:00,
2013-02-01 23:11:00,39.2,17.4,30.09,ENE,68,3.2,4.0,41,0.00,,,0.00,WSDL version 420,2013-02-02 06:11:00,
2013-02-01 23:16:00,38.9,17.4,30.09,ENE,68,3.8,4.7,42,0.00,,,0.00,WSDL version 420,2013-02-02 06:16:00,
2013-02-01 23:21:00,38.8,17.7,30.09,ENE,68,3.4,4.7,42,0.00,,,0.00,WSDL version 420,2013-02-02 06:21:00,
2013-02-01 23:26:00,38.7,17.6,30.09,ENE,68,3.1,4.3,42,0.00,,,0.00,WSDL version 420,2013-02-02 06:26:00,
2013-02-01 23:31:00,38.7,17.6,30.09,ENE,68,3.6,4.0,42,0.00,,,0.00,WSDL version 420,2013-02-02 06:31:00,
2013-02-01 23:36:00,38.7,17.6,30.09,ENE,68,3.3,4.0,42,0.00,,,0.00,WSDL version 420,2013-02-02 06:36:00,
2013-02-01 23:41:00,38.8,17.7,30.09,NE,45,2.5,4.0,42,0.00,,,0.00,WSDL version 420,2013-02-02 06:41:00,
2013-02-01 23:46:00,38.8,17.7,30.09,NE,45,1.7,4.0,42,0.00,,,0.00,WSDL version 420,2013-02-02 06:46:00,
2013-02-01 23:51:00,38.3,17.2,30.09,NE,45,1.3,2.5,42,0.00,,,0.00,WSDL version 420,2013-02-02 06:51:00,
2013-02-01 23:56:00,37.7,17.1,30.09,NE,45,1.3,2.7,43,0.00,,,0.00,WSDL version 420,2013-02-02 06:56:00,